星链-30559 (STARLINK-30559 )

导读

STARLINK-30559是美国星链互联网卫星星座的成员,于2023年10月9日发射入轨,归属于太空探索技术公司SpaceX。它属于星链组网的批量发射卫星,承担为全球提供低延迟、高速宽带互联网接入的任务,依托近地轨道部署,补全了星链星座的覆盖能力,助力全球网络服务布局。

Basic Information
目录编号:
58039
目录名称:
STARLINK-30559
国际标识:
2023-156M
轨道中心:
EARTH
卫星名称:
星链-30559
卫星全名:
星链-30559 (STARLINK-30559 )
卫星状态:
已陨落 最后检测时间 2026-03-19
发射日期:
2023-10-09 UTC
国别 :
美国 (US)
星等 :
--
Orbit Information
数据来源 国际轨道数据
星历时间: 2026-03-19T07:06:42+0800
轨道信息已过期93天
半长轴: 6573.89km
偏心率: 0.0004299
轨道倾角: 53.124°
近地点辐角 10.562°
升交点赤经 110.976°
平近点角 349.552°
近地点: 192.926km
远地点: 198.58km
周期: 88.408分钟
每日圈数: 16.288053
Detailed Information
固有亮度:
5
最大亮度:
0.3
卫星平台:
Starlink v2.0 mini
覆盖范围:
全球
运营商:
太空探索技术公司
运营商所在国:
美国
制造商(研发单位):
太空探索技术公司
制造商所在国:
美国
使用方式:
暂无
Satellite Introduction
星链(Starlink)计划是由太空探索技术公司(SpaceX)提出的一个巨型低轨卫星互联网星座项目,计划在2019年至2024年间在太空搭建由约1.2万颗卫星组成的“星链”网络,其中1584颗将部署在地球上空550千米处的近地轨道,并从2020年开始工作。该卫星仍在工作。